#timestamp,LO_Frequency,Hit,StdDev 
1622678415.4,286046997.8,N
1622678435.3,286046996.5,N
1622678455.1,286046999.2,N
1622678456.0,286046999.2,N
1622678475.8,286046997.6,N
1622678495.7,286046995.0,N
1622678515.5,286046996.5,N
1622678535.3,286046999.1,N
1622678555.2,286046999.2,N
1622678575.0,286046997.6,N
1622678575.9,286046997.6,N
1622678595.8,286046996.8,N
1622678615.6,286046998.0,N
1622678635.4,286046995.4,N
1622678655.3,286046994.9,N
1622678675.1,286046997.7,N
1622678695.8,286046999.1,N
1622678715.7,286046999.0,N
1622678735.5,286046998.6,N
1622678755.4,286047002.5,N
1622678775.2,286047000.6,N
1622678795.0,286046999.9,N
1622678795.9,286046999.9,N
1622678815.8,286046998.1,N
1622678835.6,286047000.8,N
1622678855.5,286046999.9,N
1622678875.3,286047002.8,N
1622678895.1,286046999.9,N
1622678915.9,286047002.2,N
1622678935.7,286047001.4,N
1622678955.6,286047000.8,N
1622678975.4,286047001.8,N
1622678995.2,286047003.4,N
1622679015.1,286047003.1,N
1622679016.0,286047003.1,N
1622679035.8,286047000.2,N
1622679055.7,286046999.7,N
1622679075.5,286047001.4,N
1622679095.3,286047003.9,N
1622679115.2,286047003.5,N
1622679135.0,286047004.3,N
1622679135.9,286047004.3,N
1622679155.8,286047004.1,N
1622679175.6,286047005.9,N
1622679195.4,286047003.3,N
1622679215.3,286046999.7,N
1622679235.1,286047002.8,N
1622679255.8,286047004.1,N
1622679275.7,286047003.3,N
1622679295.5,286047006.9,Y
1622679315.4,286047005.6,P
1622679335.2,286047002.0,N
1622679355.0,286047000.6,N
1622679355.9,286047000.6,N
1622679375.8,286047000.4,N
1622679395.6,286047000.8,N
1622679415.4,286047001.8,N
1622679435.3,286047004.3,N
1622679455.1,286047001.8,N
1622679475.9,286047001.0,N
1622679495.7,286047000.3,N
1622679515.5,286046999.7,N
1622679535.4,286047001.7,N
1622679555.2,286047003.9,N
1622679575.0,286047003.1,N
1622679575.9,286047003.1,N
1622679595.8,286047005.2,Y
1622679615.6,286046998.1,P
1622679635.5,286047000.8,N
1622679655.3,286046996.9,N
1622679675.1,286047000.3,N
1622679695.9,286047001.6,N
1622679715.7,286047000.4,N
1622679735.5,286046999.0,N
1622679755.4,286046998.4,N
1622679775.2,286047002.3,N
1622679795.1,286047002.1,N
1622679796.0,286047002.1,N
1622679815.8,286047001.8,N
1622679835.6,286047002.9,N
1622679855.5,286047001.6,N
1622679875.3,286047002.4,N
1622679895.1,286047001.6,N
1622679915.9,286047004.2,N
1622679935.7,286047003.5,N
1622679955.6,286047001.4,N
1622679975.4,286047002.2,N
1622679995.2,286047002.4,N
1622680015.1,286047002.3,N
1622680016.0,286047002.3,N
1622680035.8,286047000.8,N
1622680055.7,286046996.6,N
1622680075.5,286046998.4,N
1622680095.3,286047002.4,N
1622680115.2,286047002.5,N
1622680135.9,286047001.2,N
1622680155.7,286046999.9,N
1622680175.6,286047001.9,N
1622680195.4,286047004.3,N
1622680215.2,286047003.2,N
1622680235.1,286047001.6,N
1622680236.0,286047001.6,N
1622680255.8,286047002.4,N
1622680275.7,286047001.6,N
1622680295.5,286047000.8,N
1622680315.3,286047000.1,N
1622680335.2,286047004.3,N
1622680355.0,286047005.9,Y
1622680355.9,286047005.9,P
1622680375.8,286047004.3,N
1622680395.6,286046999.8,N
1622680415.4,286047001.2,N
1622680435.3,286046998.2,N
1622680455.1,286046998.1,N
1622680475.8,286046998.5,N
1622680495.7,286047002.6,N
1622680515.5,286047002.2,N
1622680535.4,286047001.3,N
1622680555.2,286046998.4,N
1622680575.0,286046996.9,N
1622680575.9,286046996.9,N
1622680595.8,286046998.4,N
1622680615.6,286046999.9,N
1622680635.4,286046996.7,N
1622680655.3,286046998.7,N
1622680675.1,286047000.3,N
1622680695.9,286047001.0,N
1622680715.7,286046998.8,N
1622680735.5,286046996.6,N
1622680755.4,286046997.4,N
1622680775.2,286046999.6,N
1622680795.0,286046996.6,N
1622680795.9,286046996.6,N
1622680815.8,286046999.1,N
1622680835.6,286047000.0,N
1622680855.5,286046999.3,N
1622680875.3,286046995.2,N
1622680895.1,286046999.4,N
1622680915.9,286047000.1,N
1622680935.7,286047000.2,N
1622680955.6,286046996.9,N
1622680975.4,286047000.4,N
1622680995.2,286046999.7,N
1622681015.1,286046999.5,N
1622681016.0,286046999.5,N
1622681035.8,286046998.5,N
1622681055.6,286046999.7,N
1622681075.5,286046998.4,N
1622681095.3,286046998.4,N
1622681115.2,286046996.5,N
1622681135.9,286046998.8,N
1622681155.7,286046999.8,N
1622681175.6,286047002.6,N
1622681195.4,286047001.6,N
1622681215.3,286047000.6,N
1622681235.1,286047000.3,N
1622681236.0,286047000.3,N
1622681255.8,286047001.4,N
1622681275.7,286047002.3,N
1622681295.5,286047000.9,N
1622681315.3,286046999.7,N
1622681335.2,286047003.8,N
1622681355.0,286047001.9,N
1622681355.9,286047001.9,N
1622681375.8,286047000.8,N
1622681395.6,286047001.1,N
1622681415.4,286047000.9,N
1622681435.3,286047001.5,N
1622681455.1,286047001.9,N
1622681475.8,286047000.9,N
1622681495.7,286046998.4,N
1622681515.5,286046998.8,N
1622681535.4,286047000.3,N
1622681555.2,286047001.8,N
1622681575.0,286046999.8,N
1622681575.9,286046999.8,N
1622681595.8,286046999.2,N
1622681615.6,286046995.1,Y
1622681635.5,286046997.5,P
1622681655.3,286046995.1,P
1622681675.1,286046996.9,N
1622681695.9,286046995.2,N
1622681715.7,286046998.4,N
1622681735.5,286047000.6,N
1622681755.4,286046999.1,N
1622681775.2,286046998.4,N
1622681795.0,286046998.9,N
1622681796.0,286046998.9,N
1622681815.8,286046997.4,N
1622681835.6,286046995.7,N
1622681855.5,286046995.7,N
1622681875.3,286046996.7,N
1622681895.1,286046998.9,N
1622681915.9,286046998.2,N
1622681935.7,286046998.2,N
1622681955.5,286046999.7,N
1622682005.4,286046999.2,E
